Location: Perryvale
(54.4667°N, 113.3833°W)
Time: 22:23:03
(UTC+00:00)

Vanguard 1 Rocket - Pass Details

Date: 26 May 2024
Orbit: 649 x 4221 km, 34.3° (Epoch: 13 June)

Event Time Altitude Azimuth Distance (km) Brightness Sun altitude
Rises 16:08:55 0° 230° (SW) 8,374 12.1 39.8°
Reaches altitude 10° 16:16:02 10° 222° (SW) 7,088 11.9 40.8°
Maximum altitude 16:33:41 32° 171° (S) 4,239 11.6 43.1°
Drops below altitude 10° 16:44:55 10° 115° (ESE) 4,519 12.0 44.5°
Sets 16:48:13 0° 105° (ESE) 5,094 11.9 45.0°
